Flag for Spain Weather past 2 weeks in Linares, Spain

Now
55 °F

Clear.


Feels Like: 55 °F
Forecast: 56 / 83 °F
Wind: 1 mph from North

Location: Granada / Aeropuerto

Current Time: Sep 19, 2014 at 4:21:23 AM

Latest Report: Sep 19, 2014 at 4:00 AM


Visibility: 10 mi

Pressure: 29.95 "Hg

Humidity: 77%

Dew point: 48 °F

Location of LinaresLocation

Historic Weather in Linares — Graph

°F

Linares temperature yesterday

Maximum temperature yesterday: 81 °F (at 3:30 PM)
Minimum temperature yesterday: 52 °F (at 7:30 AM)
Average temperature yesterday: 69 °F

Past Weeks' High & Low Weather Summary

 TemperatureHumidityPressure
High95 °F (Sep 5, 4:00 PM)100% (Sep 18, 8:30 AM)30.09 "Hg (Sep 18, 8:30 AM)
Low52 °F (Sep 16, 6:00 AM)15% (Sep 5, 5:00 PM)29.83 "Hg (Sep 16, 3:30 PM)
Average75 °F50%29.99 "Hg
* Reported Sep 4 6:00 AM — Sep 19 3:00 AM, Linares, Weather by CustomWeather, © 2014

Note: Actual official high and low records may vary slightly from our data, if they occured in-between our weather recording intervals... More about our weather records

Advertising

Linares weather history for previous 24 hours

 ConditionsComfort  
Time TempWeatherWind HumidityBarometerVisibility
3:00 AM
Sep 19
55 °FClear.1 mph77%29.95 "Hg10 mi
2:30 AM55 °FClear.2 mph82%29.95 "Hg10 mi
2:00 AM57 °FClear.No wind82%29.95 "Hg10 mi
1:30 AM57 °FClear.No wind82%29.95 "Hg10 mi
1:00 AM59 °FClear.3 mph82%29.95 "Hg10 mi
12:30 AM59 °FClear.No wind82%29.95 "Hg10 mi
12:00 AM61 °FCool.No wind83%29.95 "HgN/A
11:30 PM
Sep 18
63 °FClear.2 mph77%29.95 "Hg10 mi
11:00 PM63 °FPassing clouds.3 mph77%29.95 "HgN/A
10:30 PM64 °FPassing clouds.2 mph78%29.95 "HgN/A
10:00 PM66 °FPassing clouds.1 mph73%29.95 "HgN/A
9:30 PM68 °FPassing clouds.8 mph69%29.92 "HgN/A
9:00 PM70 °FScattered clouds.7 mph64%29.92 "HgN/A
8:30 PM72 °FScattered clouds.10 mph61%29.89 "HgN/A
8:00 PM73 °FPassing clouds.9 mph44%29.89 "HgN/A
7:30 PM77 °FPassing clouds.14 mph36%29.89 "HgN/A
7:00 PM79 °FPassing clouds.13 mph34%29.86 "HgN/A
6:30 PM77 °FPassing clouds.15 mph36%29.86 "HgN/A
6:00 PM77 °FPassing clouds.17 mph34%29.86 "HgN/A
5:30 PM81 °FPassing clouds.18 mph32%29.86 "HgN/A
5:00 PM81 °FPassing clouds.16 mph32%29.86 "HgN/A
4:30 PM81 °FPassing clouds.17 mph32%29.86 "HgN/A
4:00 PM81 °FPassing clouds.16 mph30%29.86 "HgN/A
3:30 PM81 °FScattered clouds.10 mph30%29.89 "HgN/A
3:00 PM79 °FScattered clouds.6 mph34%29.89 "HgN/A
2:30 PM77 °FScattered clouds.7 mph39%29.89 "HgN/A
2:00 PM77 °FScattered clouds.5 mph39%29.92 "HgN/A
1:30 PM77 °FScattered clouds.7 mph42%29.92 "HgN/A
1:00 PM75 °FPassing clouds.5 mph44%29.92 "HgN/A
12:30 PM75 °FPassing clouds.3 mph54%29.92 "HgN/A
12:00 PM72 °FPassing clouds.3 mph65%29.92 "HgN/A
11:30 AM70 °FPassing clouds.2 mph69%29.92 "HgN/A
11:00 AM66 °FPassing clouds.1 mph78%29.95 "HgN/A
10:30 AM63 °FPassing clouds.2 mph83%29.92 "HgN/A
10:00 AM61 °FPassing clouds.1 mph83%29.92 "HgN/A
9:30 AM61 °FPassing clouds.No wind83%29.92 "HgN/A
9:00 AM55 °FPassing clouds.No wind94%29.92 "HgN/A
8:30 AM54 °FPassing clouds.2 mph100%29.92 "HgN/A
8:00 AM52 °FPassing clouds.1 mph94%29.92 "HgN/A
7:30 AM52 °FClear.1 mph94%29.89 "Hg10 mi
7:00 AM54 °FClear.No wind94%29.89 "Hg10 mi
6:30 AM54 °FClear.No wind94%29.89 "Hg10 mi
6:00 AM55 °FClear.No wind88%29.89 "Hg10 mi
Weather by CustomWeather, © 2014

See weather overviewHow to use our weather pages